Regional Weather Roundup
Issued by NWS

Home | Current Version | Previous Version | Text Only | Print | Product List | Glossary On
Versions: 1 2 3 4 5 6 7 8 9 10 11 12 13 14 15 16 17 18 19 20 21 22 23 24 25 26 27 28 29 30 31 32 33 34 35 36 37 38 39 40 41 42 43 44 45 46 47 48 49 50
000
ASPQ40 PGUM 210812
RWRPQ
WEATHER ROUNDUP FOR THE MARIANAS AND MICRONESIA
NATIONAL WEATHER SERVICE TIYAN GU
600 PM CHST TUE OCT 21 2014

GUZ001>004-210900-
MARIANA ISLANDS-

CITY           SKY/WX    TMP DP  RH WIND       PRES   REMARKS
GUAM AIRPORT   CLEAR     84  73  70 NE6       29.81R HX  91
ANDERSEN AFB   PTCLDY    82  75  78 NE7       29.81R
ROTA AIRPORT   PTCLDY    81  75  83 NE5       29.81R
TINIAN AP      PTCLDY    82  75  78 NE3       29.79R
SAIPAN AP      PTCLDY    84  75  74 NE5       29.80R HX  92

$$

PMZ161-210900-
REPUBLIC OF PALAU-

CITY           SKY/WX    TMP DP  RH WIND       PRES   REMARKS
KOROR AP       NOT AVBL
KOROR WSO      PTSUNNY   88  77  70 NW3       29.80S HX 100

$$

PMZ171>174-210900-
FEDERATED STATES OF MICRONESIA-

CITY           SKY/WX    TMP DP  RH WIND       PRES   REMARKS
YAP AIRPORT    MOCLDY    82  79  89 VRB5      29.79S HX  93
CHUUK AP       MOCLDY    84  81  89 CALM      29.79R HX  98
POHNPEI AP     NOT AVBL
POHNPEI WSO    MOCLDY    82  79  89 S3        29.83R HX  93
KOSRAE AP      NOT AVBL

$$

PMZ181-210900-
REPUBLIC OF THE MARSHALL ISLANDS-

CITY           SKY/WX    TMP DP  RH WIND       PRES   REMARKS
KWAJALEIN AP   PTCLDY    84  75  74 S9        29.82R HX  92
MAJURO AP      MOCLDY    82  75  78 S6        29.82
MAJURO WSO     PTCLDY    84  79  84 SE6       29.83R HX  96

$$




USA.gov is the U.S. government's official web portal to all federal, state and local government web resources and services.